Warwick, RI

4:14 AM EST on February 10, 2016 (GMT -0500)
Green State

Weather History for KPVD - November, 2011

Change the Weather History Date:

Tuesday, November 8, 2011

  Actual Average Record
Temperature  
Mean Temperature 58 °F 47 °F  
Max Temperature 70 °F 56 °F 73 °F (1945)
Min Temperature 45 °F 38 °F 22 °F (1960)
Degree Days  
Heating Degree Days 7 18  
Month to date heating degree days 148 138  
Since 1 July heating degree days 491 596  
Cooling Degree Days 0 0  
Month to date cooling degree days 0 0  
Year to date cooling degree days 921 744  
Growing Degree Days 8 (Base 50)    
Moisture  
Dew Point 45 °F    
Average Humidity 69    
Maximum Humidity 93    
Minimum Humidity 44    
Precipitation  
Precipitation 0.00 in 0.14 in 1.94 in (1972)
Month to date precipitation 0.00 1.12  
Year to date precipitation 47.98 39.57  
Snow  
Snow 0.00 in 0.00 in 0.10 in (2010)
Month to date snowfall 0.0 0.1  
Since 1 July snowfall 2.3 0.1  
Since 1 September snowfall 2.3 0.1  
Snow Depth -    
Sea Level Pressure  
Sea Level Pressure 30.24 in    
Wind  
Wind Speed 3 mph (WSW)    
Max Wind Speed 10 mph    
Max Gust Speed 13 mph    
Visibility 10 miles    
Events      
T = Trace of Precipitation, MM = Missing Value Source: NWS Daily Summary

Daily Weather History Graph

Daily Weather History Graph

Search for Another Location

Airport or City:

Trip Planner

Search our weather history database for the weather conditions in past years. The results will help you decide how hot, cold, wet, or windy it might be!

Date:

Astronomy

Nov. 08, 2011 Rise Set
Actual Time 6:26 AM EST 4:32 PM EST
Civil Twilight 5:56 AM EST 5:01 PM EST
Nautical Twilight 5:23 AM EST 5:34 PM EST
Astronomical Twilight 4:50 AM EST 6:07 PM EST
Moon 3:11 PM EST (11/8) 4:21 AM EST (11/8)
Length of Visible Light 11h 05m
Length of Day
10h 06m
Waxing Gibbous, 96% of the Moon is Illuminated
Nov 8
Waxing Gibbous
Nov 10
Full
Nov 18
Last Quarter
Nov 25
New
Dec 2
First Quarter

Hourly Weather History & Observations

Time (EST) Temp. Dew Point Humidity Pressure Visibility Wind Dir Wind Speed Gust Speed Precip Events Conditions
12:51 AM 46.0 °F 41.0 °F 83% 30.23 in 10.0 mi Calm Calm - N/A   Clear
1:51 AM 48.2 °F 42.8 °F 82% 30.22 in 10.0 mi West 5.8 mph - N/A   Clear
2:51 AM 48.2 °F 42.8 °F 82% 30.21 in 10.0 mi West 4.6 mph - N/A   Clear
3:51 AM 48.9 °F 43.0 °F 80% 30.22 in 10.0 mi West 5.8 mph - N/A   Clear
4:51 AM 48.0 °F 43.0 °F 83% 30.23 in 10.0 mi West 4.6 mph - N/A   Clear
5:51 AM 48.0 °F 42.1 °F 80% 30.25 in 10.0 mi West 5.8 mph - N/A   Partly Cloudy
6:51 AM 48.0 °F 43.0 °F 83% 30.26 in 10.0 mi WNW 6.9 mph - N/A   Partly Cloudy
7:51 AM 53.1 °F 44.1 °F 71% 30.27 in 10.0 mi West 3.5 mph - N/A   Mostly Cloudy
8:51 AM 60.1 °F 46.0 °F 60% 30.27 in 10.0 mi Calm Calm - N/A   Mostly Cloudy
9:51 AM 64.9 °F 46.9 °F 52% 30.27 in 10.0 mi NNE 3.5 mph - N/A   Mostly Cloudy
10:51 AM 66.0 °F 46.9 °F 50% 30.26 in 10.0 mi North 4.6 mph - N/A   Partly Cloudy
11:51 AM 68.0 °F 46.9 °F 47% 30.24 in 10.0 mi Calm Calm - N/A   Partly Cloudy
12:51 PM 70.0 °F 46.0 °F 42% 30.21 in 10.0 mi Calm Calm - N/A   Partly Cloudy
1:51 PM 69.1 °F 46.9 °F 45% 30.20 in 10.0 mi SSE 5.8 mph - N/A   Clear
2:51 PM 66.9 °F 46.0 °F 47% 30.21 in 10.0 mi SSE 6.9 mph - N/A   Partly Cloudy
3:51 PM 64.0 °F 46.9 °F 54% 30.21 in 10.0 mi SSE 9.2 mph - N/A   Partly Cloudy
4:51 PM 57.9 °F 46.9 °F 67% 30.22 in 10.0 mi South 5.8 mph - N/A   Partly Cloudy
5:51 PM 57.0 °F 46.9 °F 69% 30.23 in 10.0 mi South 3.5 mph - N/A   Clear
6:51 PM 53.1 °F 46.9 °F 80% 30.24 in 10.0 mi Calm Calm - N/A   Clear
7:51 PM 53.1 °F 48.0 °F 83% 30.24 in 9.0 mi Calm Calm - N/A   Clear
8:51 PM 51.1 °F 46.9 °F 86% 30.25 in 9.0 mi Calm Calm - N/A   Clear
9:51 PM 48.0 °F 46.0 °F 93% 30.25 in 7.0 mi Calm Calm - N/A   Clear
10:51 PM 48.0 °F 45.0 °F 89% 30.24 in 7.0 mi Calm Calm - N/A   Clear
11:51 PM 46.0 °F 44.1 °F 93% 30.24 in 7.0 mi Calm Calm - N/A   Clear